User: anonymous   Login
Location: Unspecified
(0.0000°N, 0.0000°E)
Time: 02:53:48
(UTC+00:00)
Language:

MOZHAYETS 4 - Orbit

View from above orbital plane
View from above orbital plane
View from above satellite
View from above satellite

Ground track
Ground track

The orbit data is extracted from the following two-line orbital elements,

1 27939U 03042A   20185.89392526 +.00000048 +00000-0 +17288-4 0  9991
2 27939 098.0933 320.4968 0011755 304.8671 055.1421 14.66869519896426
Epoch (UTC): 03 July 2020 21:27:15
Eccentricity: 0.0011755
inclination: 98.0933°
perigee height: 663 km
apogee height: 679 km
right ascension of ascending node: 320.4968°
argument of perigee: 304.8671°
revolutions per day: 14.66869519
mean anomaly at epoch: 55.1421°
orbit number at epoch: 89642

The dashed part of the orbit path shows where the satellite is in the earth's shadow,  

DLR